Regional Weather Roundup
Issued by NWS Kansas City/Pleasant Hill, MO

Home | Current Version | Previous Version | Text Only | Print | Product List | Glossary On
Versions: 1 2 3 4 5 6 7 8 9 10 11 12 13 14 15 16 17 18 19 20 21 22 23 24 25 26 27 28 29 30 31 32 33 34 35 36 37 38 39 40 41 42 43 44 45 46 47 48 49 50
000
ASUS43 KEAX 091810
RWREAX

WEATHER ROUNDUP FOR EASTERN KANSAS AND NORTHWEST MISSOURI
NATIONAL WEATHER SERVICE KANSAS CITY/PLEASANT HILL MO
1200 PM CST TUE FEB 09 2016

KSZ040-057-103>105-MOZ028-029-037-043-091900-
...KANSAS CITY METROPOLITAN AREA...

CITY           SKY/WX    TMP DP  RH WIND       PRES   REMARKS
K.C. INTL      MOSUNNY   26  10  50 NW15G26   30.19S WCI  14
6HR MIN TEMP:  16; 6HR MAX TEMP:  26;

K.C. DOWNTOWN  SUNNY     26   8  46 N17G26    30.20S WCI  13
6HR MIN TEMP:  19; 6HR MAX TEMP:  27;

LEES SUMMIT    SUNNY     25  10  53 NW17G26   30.19R WCI  12
6HR MIN TEMP:  17; 6HR MAX TEMP:  25;

OLATHE - IXD   SUNNY     28  10  46 NW21G29   30.21R WCI  15
6HR MIN TEMP:  19; 6HR MAX TEMP:  28;

OLATHE - OJC   SUNNY     25   8  48 N15G30    30.20R WCI  13
6HR MIN TEMP:  19; 6HR MAX TEMP:  26;

LAWRENCE       SUNNY     29   6  38 NW30G37   30.23S WCI  13

$$

MOZ001>008-011>017-020>025-030>033-038>040-044>046-053-054-091900-
...NORTHERN AND CENTRAL MISSOURI...

CITY           SKY/WX    TMP DP  RH WIND       PRES   REMARKS
ST. JOSEPH     MOSUNNY   25   8  48 N21G32    30.23R WCI  11
6HR MIN TEMP:  14; 6HR MAX TEMP:  25;

MOSBY          CLEAR     25  10  54 NW18G28   30.21R WCI  11
WARRENSBURG    SUNNY     27  10  50 NW14G28   30.18S WCI  15
WHITEMAN AFB   MOSUNNY   24   8  50 NW20G28   30.15R WCI  10
6HR MIN TEMP:  17; 6HR MAX TEMP:  25; 6HR PCP: TRACE;

CLINTON          N/A     30  12  47 N20G25    30.18R WCI  18
SEDALIA        MOSUNNY   25  11  55 NW18G29   30.15S WCI  11
6HR MIN TEMP:  17; 6HR MAX TEMP:  25; 6HR PCP: TRACE;

WARSAW         NOT AVBL
CHILLICOTHE      N/A     22   8  55 NW16G24   30.18R WCI   8
6HR MIN TEMP:  16; 6HR MAX TEMP:  22;

KIRKSVILLE     FLURRIES  22   6  50 NW16G29   30.09R WCI   8
6HR MIN TEMP:  13; 6HR MAX TEMP:  22; 6HR PCP: TRACE;


$$

MOZ041-047>049-056>058-063>065-088>090-097-091900-
...EASTERN AND SOUTHERN MISSOURI...

CITY           SKY/WX    TMP DP  RH WIND       PRES   REMARKS
ST. LOUIS INTL FLURRIES  21  10  63 NW17G24   30.02F WCI   7
6HR MIN TEMP:  19; 6HR MAX TEMP:  21; 6HR PCP: TRACE;

SPIRIT OF STL  CLOUDY    20  10  65 NW15G26   30.04S WCI   6
COLUMBIA       PTSUNNY   24   9  52 NW18G26   30.08S WCI  10
JEFFERSON CITY CLOUDY    23  10  57 NW21G29   30.12R WCI   8
ROLLA          FLURRIES  20  11  68 NW14G23   30.04R WCI   7
OSAGE BEACH    PTSUNNY   25   7  46 NW10G18   30.11S WCI  15
SPRINGFIELD    PTSUNNY   30   9  41 NW23G31   30.11R WCI  17
BRANSON        MOSUNNY   32   7  34 NW20G40   30.10R WCI  20
JOPLIN         SUNNY     35  10  35 NW17      30.20R WCI  25
WEST PLAINS    CLOUDY    26   9  48 NW18G29   30.05R WCI  13

$$

IAZ060-094-KSZ022-034>040-054-083-096-NEZ052-066-093-091900-
...KANSAS...SOUTHEAST NEBRASKA AND IOWA...

CITY           SKY/WX    TMP DP  RH WIND       PRES   REMARKS
TOPEKA         SUNNY     30   2  30 NW24G36   30.25S WCI  16
6HR MIN TEMP:  24; 6HR MAX TEMP:  30;

MANHATTAN      SUNNY     31   4  31 N16G25    30.30R WCI  20
EMPORIA        SUNNY     33   5  30 NW24G32   30.23S WCI  20
CHANUTE        SUNNY     35   2  24 N25G35    30.24R WCI  23
WICHITA        PTSUNNY   38  14  37 N20G30    30.28F WCI  28
OMAHA          MOSUNNY   18   6  59 N21G31    30.28S WCI   1
LINCOLN        SUNNY     22   8  55 N18G29    30.32R WCI   7
FALLS CITY     SUNNY     23   6  48 NW22G32   30.26R WCI   8
LAMONI         SUNNY     18   6  59 NW22      30.15R WCI   1
DES MOINES     MOSUNNY   14   4  64 N17       30.15S WCI  -3

$$




USA.gov is the U.S. government's official web portal to all federal, state and local government web resources and services.